Location: Zlin
(49.2330°N, 17.6670°E)
Time: 14:28:05
(UTC+02:00)

ISS - Visible Passes

Search period start: 29 March 2015 00:00
Search period end: 08 April 2015 01:00
Orbit: 396 x 406 km, 51.6° (Epoch: 29 March)

Date Brightness Start Highest point End Pass type
(mag) Time Alt. Az. Time Alt. Az. Time Alt. Az.
29 Mar -3.5 04:43:08 65° SW 04:43:13 66° SSW 04:46:25 10° ESE visible
30 Mar -0.8 03:52:17 16° ESE 03:52:17 16° ESE 03:53:05 10° ESE visible
30 Mar -2.1 05:24:54 20° WSW 05:25:58 23° SW 05:28:35 10° SSE visible
31 Mar -1.6 04:34:16 22° SSE 04:34:16 22° SSE 04:35:43 10° SE visible
01 Apr -1.0 05:16:32 10° SSW 05:16:32 10° SSW 05:16:40 10° SSW visible
04 Apr -2.0 20:49:45 10° SSW 20:51:57 23° SSE 20:51:57 23° SSE visible
05 Apr -1.4 19:57:12 10° S 19:59:03 15° SE 20:00:59 10° ESE visible
05 Apr -2.6 21:31:46 10° WSW 21:34:09 43° SW 21:34:09 43° SW visible
06 Apr -2.9 20:38:21 10° SW 20:41:28 42° SSE 20:43:23 20° E visible
06 Apr -1.2 22:14:34 10° W 22:15:59 23° W 22:15:59 23° W visible
07 Apr -3.3 21:20:51 10° WSW 21:24:07 80° NNW 21:24:58 47° ENE visible
07 Apr 0.0 22:57:30 10° WNW 22:57:33 10° WNW 22:57:33 10° WNW visible
